CW8248 Weather Reports


time (UTC)temp
C
wind
direction
speed
KPH
gust
KPH
rain 1hr
cm
rain 24hr
cm
rain mn
cm
humidity
%
barometer
mb
20260503193038 27 154 3.2 11.3 0.00 0.00 0.00 30 1011.9
20260503192532 27 169 6.4 11.3 0.00 0.00 0.00 35 1012.0
20260503192033 26 191 4.8 9.7 0.00 0.00 0.00 31 1012.0
20260503191531 27 196 4.8 6.4 0.00 0.00 0.00 36 1012.1
20260503191030 26 186 3.2 8.0 0.00 0.00 0.00 42 1012.2
20260503190530 25 186 3.2 8.0 0.00 0.00 0.00 37 1012.2
20260503190036 25 186 3.2 8.0 0.00 0.00 0.00 41 1012.3
20260503185528 25 186 1.6 6.4 0.00 0.00 0.00 36 1012.4
20260503185027 26 215 3.2 6.4 0.00 0.00 0.00 35 1012.5
20260503184525 24 191 3.2 4.8 0.00 0.00 0.00 41 1012.6
20260503184022 23 167 1.6 4.8 0.00 0.00 0.00 43 1012.6
20260503183521 23 166 3.2 4.8 0.00 0.00 0.00 44 1012.7
20260503183019 23 164 1.6 6.4 0.00 0.00 0.00 42 1012.8
20260503182518 23 164 1.6 8.0 0.00 0.00 0.00 45 1012.8
20260503182017 23 168 4.8 8.0 0.00 0.00 0.00 44 1012.9
20260503181515 22 171 3.2 6.4 0.00 0.00 0.00 44 1012.9
20260503181014 21 175 1.6 4.8 0.00 0.00 0.00 42 1013.0
20260503180513 22 175 1.6 4.8 0.00 0.00 0.00 50 1013.0
20260503180013 21 175 1.6 4.8 0.00 0.00 0.00 49 1013.1
20260503175509 21 175 1.6 4.8 0.00 0.00 0.00 47 1013.2
20260503175008 21 175 1.6 6.4 0.00 0.00 0.00 53 1013.2
20260503174506 21 174 1.6 6.4 0.00 0.00 0.00 47 1013.2
20260503174005 20 174 3.2 6.4 0.00 0.00 0.00 52 1013.4
20260503173505 20 177 1.6 4.8 0.00 0.00 0.00 53 1013.4
20260503173005 20 177 1.6 6.4 0.00 0.00 0.00 50 1013.5
20260503172504 19 177 3.2 6.4 0.00 0.00 0.00 55 1013.5
20260503172004 18 169 1.6 8.0 0.00 0.00 0.00 55 1013.6
20260503171503 19 168 3.2 8.0 0.00 0.00 0.00 56 1013.6
20260503171001 18 169 3.2 9.7 0.00 0.00 0.00 56 1013.5
20260503170601 18 169 3.2 9.7 0.00 0.00 0.00 55 1013.6
20260503150532 14 83 1.6 8.0 0.00 0.00 0.00 66 1014.3
20260503131011 10 49 0.0 6.4 0.00 0.00 0.00 72 1014.0
20260503130513 10 38 1.6 9.7 0.00 0.00 0.00 72 1014.0
20260503110501 11 18 0.0 3.2 0.00 0.00 0.00 73 1013.8
20260503100109 11 2 1.6 3.2 0.00 0.00 0.00 76 1013.7
20260503081555 12 27 0.0 3.2 0.00 0.00 0.00 75 1013.3
20260503081044 12 27 1.6 6.4 0.00 0.00 0.00 75 1013.3
20260503080544 12 357 3.2 6.4 0.00 0.00 0.00 76 1013.2
20260503072539 13 29 1.6 3.2 0.00 0.00 0.00 75 1013.4
20260503072038 13 29 1.6 3.2 0.00 0.00 0.00 74 1013.4
20260503071537 13 29 1.6 3.2 0.00 0.00 0.00 74 1013.3
20260503071036 13 29 1.6 3.2 0.00 0.00 0.00 74 1013.3
20260503070536 13 29 1.6 3.2 0.00 0.00 0.00 75 1013.4
20260503055033 14 5 1.6 6.4 0.00 0.00 0.00 74 1013.1
20260503054552 14 5 1.6 6.4 0.00 0.00 0.00 74 1013.1
20260503054033 14 25 0.0 1.6 0.00 0.00 0.00 73 1013.1
20260503053533 15 25 0.0 1.6 0.00 0.00 0.00 73 1013.1
20260503053039 15 25 0.0 3.2 0.00 0.00 0.00 71 1013.1
20260503052534 15 25 0.0 3.2 0.00 0.00 0.00 71 1013.2
20260503052032 15 52 1.6 6.4 0.00 0.00 0.00 71 1013.2
20260503051533 15 52 0.0 6.4 0.00 0.00 0.00 72 1013.2
20260503051034 15 12 1.6 3.2 0.00 0.00 0.00 74 1013.1
20260503050532 15 12 0.0 3.2 0.00 0.00 0.00 74 1013.1
20260503050033 15 12 0.0 3.2 0.00 0.00 0.00 74 1013.0
20260503045532 15 12 0.0 4.8 0.00 0.00 0.00 73 1012.9
20260503045032 15 12 0.0 3.2 0.00 0.00 0.00 74 1012.9
20260503044531 15 12 0.0 3.2 0.00 0.00 0.00 73 1012.9
20260503044031 15 12 0.0 6.4 0.00 0.00 0.00 73 1012.9
20260503043531 15 12 0.0 6.4 0.00 0.00 0.00 73 1012.9
20260503043031 15 12 0.0 3.2 0.00 0.00 0.00 73 1012.8
20260503042531 15 12 1.6 6.4 0.00 0.00 0.00 72 1012.7
20260503042031 15 12 1.6 6.4 0.00 0.00 0.00 72 1012.7
20260503041531 16 48 1.6 6.4 0.00 0.00 0.00 72 1012.6
20260503041033 16 91 0.0 6.4 0.00 0.00 0.00 72 1012.6
20260503040530 16 271 0.0 6.4 0.00 0.00 0.00 72 1012.6
20260503040036 16 271 1.6 6.4 0.00 0.00 0.00 72 1012.5
20260503035530 16 262 0.0 3.2 0.00 0.00 0.00 73 1012.4
20260503035030 16 262 0.0 12.9 0.00 0.00 0.00 71 1012.4
20260503034530 16 252 0.0 12.9 0.00 0.00 0.00 69 1012.2
20260503034031 16 320 0.0 8.0 0.00 0.00 0.00 70 1012.1
20260503033530 16 254 0.0 8.0 0.00 0.00 0.00 70 1011.9
20260503033031 16 265 0.0 6.4 0.00 0.00 0.00 70 1011.7
20260503032529 16 191 1.6 8.0 0.00 0.00 0.00 70 1011.5
20260503032029 17 271 0.0 8.0 0.00 0.00 0.00 69 1011.4
20260503031529 17 271 0.0 1.6 0.00 0.00 0.00 68 1011.3
20260503031029 17 271 0.0 1.6 0.00 0.00 0.00 67 1011.2
20260503030532 17 271 0.0 3.2 0.00 0.00 0.00 69 1011.2
20260503030029 17 271 0.0 3.2 0.00 0.00 0.00 70 1011.1
20260503025528 17 271 0.0 1.6 0.00 0.00 0.00 69 1011.0
20260503025028 17 271 0.0 3.2 0.00 0.00 0.00 68 1011.0
20260503024528 17 271 0.0 3.2 0.00 0.00 0.00 66 1011.0
20260503024028 17 271 0.0 1.6 0.00 0.00 0.00 66 1010.9
20260503023527 17 271 0.0 1.6 0.00 0.00 0.00 68 1010.9
20260503023026 18 271 0.0 3.2 0.00 0.00 0.00 66 1010.8
20260503022527 18 271 0.0 3.2 0.00 0.00 0.00 64 1010.8
20260503022027 18 271 0.0 3.2 0.00 0.00 0.00 62 1010.8
20260503021527 18 271 0.0 3.2 0.00 0.00 0.00 60 1010.7
20260503021027 18 271 0.0 0.0 0.00 0.00 0.00 61 1010.7
20260503020527 18 271 0.0 0.0 0.00 0.00 0.00 62 1010.6
20260503020027 18 271 0.0 1.6 0.00 0.00 0.00 61 1010.6
20260503015527 18 271 0.0 1.6 0.00 0.00 0.00 62 1010.5
20260503015030 18 271 0.0 1.6 0.00 0.00 0.00 62 1010.5
20260503014526 18 271 0.0 3.2 0.00 0.00 0.00 58 1010.5
20260503014026 18 271 0.0 3.2 0.00 0.00 0.00 57 1010.5
20260503013526 19 271 0.0 1.6 0.00 0.00 0.00 59 1010.5
20260503013026 19 271 0.0 3.2 0.00 0.00 0.00 58 1010.5
20260503012526 19 271 0.0 3.2 0.00 0.00 0.00 58 1010.5
20260503012026 19 271 0.0 1.6 0.00 0.00 0.00 55 1010.5
20260503011526 19 271 0.0 3.2 0.00 0.00 0.00 57 1010.5
20260503011025 19 271 0.0 3.2 0.00 0.00 0.00 55 1010.5
20260503010528 20 271 0.0 3.2 0.00 0.00 0.00 54 1010.6
20260503010029 20 271 1.6 4.8 0.00 0.00 0.00 55 1010.6
20260503005525 20 271 1.6 4.8 0.00 0.00 0.00 54 1010.6
20260503005028 20 271 0.0 12.9 0.00 0.00 0.00 54 1010.6
20260503004523 20 271 3.2 12.9 0.00 0.00 0.00 53 1010.6
20260503004023 20 265 0.0 3.2 0.00 0.00 0.00 54 1010.6
20260503003523 20 265 1.6 3.2 0.00 0.00 0.00 53 1010.5
20260503003026 20 265 0.0 4.8 0.00 0.00 0.00 56 1010.5
20260503002523 20 265 1.6 4.8 0.00 0.00 0.00 54 1010.6
20260503002023 21 265 1.6 4.8 0.00 0.00 0.00 56 1010.5
20260503001523 20 265 1.6 6.4 0.00 0.00 0.00 54 1010.5
20260503001022 20 265 1.6 6.4 0.00 0.00 0.00 53 1010.4
20260503000521 20 265 3.2 6.4 0.00 0.00 0.00 54 1010.5
20260503000021 21 265 1.6 6.4 0.00 0.00 0.00 53 1010.5
20260502235521 21 265 1.6 8.0 0.00 0.00 0.00 52 1010.6
20260502235020 21 265 3.2 8.0 0.00 0.00 0.00 51 1010.7
20260502234524 21 265 0.0 4.8 0.00 0.00 0.00 49 1010.8
20260502234021 21 265 1.6 11.3 0.00 0.00 0.00 54 1010.9
20260502233517 21 265 3.2 11.3 0.00 0.00 0.00 52 1010.9
20260502233017 21 260 3.2 8.0 0.00 0.00 0.00 49 1011.0
20260502232517 21 260 3.2 8.0 0.00 0.00 0.00 50 1010.9
20260502232017 21 260 3.2 8.0 0.00 0.00 0.00 52 1011.0
20260502231520 21 257 3.2 6.4 0.00 0.00 0.00 52 1011.2
20260502231016 21 257 3.2 8.0 0.00 0.00 0.00 53 1011.2
20260502230516 21 257 3.2 8.0 0.00 0.00 0.00 51 1011.3
20260502230016 21 257 3.2 6.4 0.00 0.00 0.00 55 1011.3
20260502225516 21 258 3.2 6.4 0.00 0.00 0.00 53 1011.3
20260502225014 21 254 3.2 9.7 0.00 0.00 0.00 54 1011.4
20260502224513 21 254 3.2 9.7 0.00 0.00 0.00 52 1011.5
20260502224012 21 236 3.2 12.9 0.00 0.00 0.00 52 1011.6
20260502223511 21 231 3.2 12.9 0.00 0.00 0.00 50 1011.8
20260502223011 21 252 4.8 11.3 0.00 0.00 0.00 50 1011.9
20260502222509 21 245 4.8 9.7 0.00 0.00 0.00 51 1012.0
20260502222009 21 245 4.8 11.3 0.00 0.00 0.00 51 1012.0
20260502221509 21 247 3.2 9.7 0.00 0.00 0.00 56 1012.1
20260502221009 21 248 3.2 11.3 0.00 0.00 0.00 56 1012.2
20260502220507 21 263 6.4 11.3 0.00 0.00 0.00 54 1012.3
20260502220011 21 242 3.2 11.3 0.00 0.00 0.00 53 1012.4
20260502215507 21 248 4.8 11.3 0.00 0.00 0.00 55 1012.5
20260502215007 22 248 4.8 9.7 0.00 0.00 0.00 47 1012.5
20260502214513 22 248 3.2 8.0 0.00 0.00 0.00 58 1012.5
20260502214004 21 248 3.2 12.9 0.00 0.00 0.00 58 1012.6
20260502213504 20 248 3.2 17.7 0.00 0.00 0.00 59 1012.7
20260502213004 20 243 9.7 22.5 0.00 0.00 0.00 57 1012.8
20260502212504 20 252 9.7 17.7 0.00 0.00 0.00 56 1012.7
20260502212003 18 219 0.0 3.2 0.00 0.00 0.00 64 1012.8
20260502211505 18 219 0.0 12.9 0.00 0.00 0.00 59 1013.0
20260502211001 18 239 6.4 12.9 0.00 0.00 0.00 59 1013.1
20260502210501 18 253 8.0 12.9 0.00 0.00 0.00 60 1013.1
20260502210004 18 266 6.4 20.9 0.00 0.00 0.00 58 1013.1
20260502205502 20 250 12.9 20.9 0.00 0.00 0.00 51 1013.1
20260502205100 21 239 6.4 8.0 0.00 0.00 0.00 54 1013.0
20260502204618 21 241 6.4 8.0 0.00 0.00 0.00 58 1013.1
20260502204101 20 175 1.6 6.4 0.00 0.00 0.00 56 1013.3
20260502203600 20 191 3.2 6.4 0.00 0.00 0.00 58 1013.4
20260502203059 20 196 1.6 9.7 0.00 0.00 0.00 55 1013.5
20260502202559 22 196 4.8 9.7 0.00 0.00 0.00 51 1013.6
20260502202056 20 186 1.6 6.4 0.00 0.00 0.00 58 1013.6
20260502201556 19 196 0.0 6.4 0.00 0.00 0.00 63 1013.6
20260502201056 17 212 0.0 9.7 0.00 0.00 0.00 55 1013.6
20260502200555 19 212 8.0 9.7 0.00 0.00 0.00 57 1013.8
20260502200056 18 228 4.8 8.0 0.00 0.00 0.00 67 1013.6
20260502195552 16 235 0.0 14.5 0.00 0.00 0.00 69 1013.4
20260502195052 15 252 4.8 14.5 0.00 0.00 0.00 68 1013.4
20260502194552 16 208 3.2 14.5 0.00 0.00 0.00 68 1013.4
20260502194052 15 51 1.6 14.5 0.00 0.00 0.00 70 1013.2
20260502193549 15 60 1.6 8.0 0.00 0.00 0.00 73 1013.6